Location: Unspecified
(33.6682°S, 0.0000°E)
Time: 01:55:13
(UTC+00:00)

Vanguard 1 - Pass Details

Date: 27 June 2019
Orbit: 655 x 3829 km, 34.2° (Epoch: 17 August)

Event Time Altitude Azimuth Distance (km) Brightness Sun altitude
Rises 21:55:36 0° 263° (W) 6,269 14.6 -60.3°
Reaches altitude 10° 22:00:37 10° 276° (W) 5,717 14.2 -61.3°
Maximum altitude 22:13:39 24° 320° (NW) 5,473 13.8 -63.9°
Enters shadow 22:23:45 17° 351° (N) 6,261 14.0 -65.9°
Exits shadow 22:34:54 - 13° (NNE) 7,578 14.4 -68.1°
Sets 22:36:54 0° 16° (NNE) 7,834 14.5 -68.5°
